User: anonymous   Login
Location: Natural Bridges National Monument
(37.6093°N, 109.9767°W)
Time: 19:27:36
(UTC-06:00)
Language:

USA 32 - Orbit

View from above orbital plane
View from above orbital plane
View from above satellite
View from above satellite

Ground track
Ground track

The orbit data is extracted from the following two-line orbital elements,

1 19460U 88078A   17147.00947002 0.00000040  00000-0  14518-4 0    03
2 19460  84.9862 234.2787 0003000 297.2695  62.7303 14.33414984    07
Epoch (UTC): 27 May 2017 00:13:38
Eccentricity: 0.0003000
inclination: 84.9862°
perigee height: 778 km
apogee height: 782 km
right ascension of ascending node: 234.2787°
argument of perigee: 297.2695°
revolutions per day: 14.33414984
mean anomaly at epoch: 62.7303°
orbit number at epoch: 0

The dashed part of the orbit path shows where the satellite is in the earth's shadow,  

DLR